TimeEDT,TemperatureF,Dew PointF,Humidity,Sea Level PressureIn,VisibilityMPH,Wind Direction,Wind SpeedMPH,Gust SpeedMPH,PrecipitationIn,Events,Conditions,WindDirDegrees,DateUTC
12:15 AM,49.3,23.5,36,29.99,10.0,WSW,12.7,20.7,N/A,,Overcast,240,2012-10-08 04:15:00
12:35 AM,49.3,25.0,39,29.99,10.0,WSW,9.2,23.0,N/A,,Overcast,240,2012-10-08 04:35:00
12:55 AM,49.3,24.3,38,29.99,10.0,WSW,10.4,16.1,N/A,,Overcast,240,2012-10-08 04:55:00
1:15 AM,49.3,23.7,37,29.99,10.0,WSW,13.8,21.9,N/A,,Overcast,240,2012-10-08 05:15:00
1:35 AM,49.3,24.3,38,29.99,10.0,WSW,11.5,20.7,N/A,,Overcast,240,2012-10-08 05:35:00
1:54 AM,48.9,22.6,36,29.99,10.0,WSW,10.4,23.0,N/A,,Mostly Cloudy,250,2012-10-08 05:54:00
2:15 AM,49.3,22.8,35,29.99,10.0,SW,11.5,18.4,N/A,,Overcast,230,2012-10-08 06:15:00
2:35 AM,49.3,24.8,38,29.99,10.0,SW,13.8,24.2,N/A,,Overcast,230,2012-10-08 06:35:00
2:55 AM,48.9,24.1,38,30.00,10.0,SW,10.4,19.6,N/A,,Overcast,230,2012-10-08 06:55:00
3:15 AM,48.2,23.5,38,29.99,10.0,WSW,13.8,20.7,N/A,,Mostly Cloudy,250,2012-10-08 07:15:00
3:35 AM,48.2,23.2,37,29.99,10.0,WSW,15.0,19.6,N/A,,Scattered Clouds,240,2012-10-08 07:35:00
3:55 AM,48.2,23.5,38,29.98,10.0,SW,15.0,20.7,N/A,,Mostly Cloudy,230,2012-10-08 07:55:00
4:15 AM,48.2,23.7,38,29.98,10.0,WSW,11.5,-,N/A,,Mostly Cloudy,240,2012-10-08 08:15:00
4:35 AM,48.2,23.4,38,29.98,10.0,SW,13.8,18.4,N/A,,Scattered Clouds,230,2012-10-08 08:35:00
4:55 AM,47.8,23.2,38,29.99,10.0,SW,10.4,18.4,N/A,,Scattered Clouds,230,2012-10-08 08:55:00
5:15 AM,47.7,24.3,40,29.98,10.0,WSW,15.0,20.7,N/A,,Scattered Clouds,240,2012-10-08 09:15:00
5:35 AM,47.3,24.3,40,29.99,10.0,SW,13.8,19.6,N/A,,Scattered Clouds,230,2012-10-08 09:35:00
5:55 AM,47.7,25.0,41,29.99,10.0,SW,10.4,17.3,N/A,,Scattered Clouds,230,2012-10-08 09:55:00
6:15 AM,48.2,25.7,42,29.99,10.0,WSW,11.5,17.3,N/A,,Mostly Cloudy,240,2012-10-08 10:15:00
6:35 AM,48.2,24.8,40,29.99,10.0,SW,13.8,19.6,N/A,,Mostly Cloudy,220,2012-10-08 10:35:00
6:55 AM,46.9,23.5,40,29.99,10.0,SW,15.0,19.6,N/A,,Scattered Clouds,230,2012-10-08 10:55:00
7:15 AM,47.5,23.7,39,29.99,10.0,SW,10.4,17.3,N/A,,Scattered Clouds,220,2012-10-08 11:15:00
7:35 AM,47.5,25.3,42,29.99,10.0,SW,9.2,20.7,N/A,,Scattered Clouds,230,2012-10-08 11:35:00
7:55 AM,46.8,24.8,42,29.99,10.0,SW,9.2,-,N/A,,Clear,220,2012-10-08 11:55:00
8:14 AM,48.0,26.2,43,29.99,10.0,SW,8.1,-,N/A,,Clear,220,2012-10-08 12:14:00
8:35 AM,49.1,26.8,42,30.00,10.0,SW,10.4,16.1,N/A,,Clear,230,2012-10-08 12:35:00
8:55 AM,50.4,27.9,42,30.00,10.0,SW,11.5,19.6,N/A,,Clear,220,2012-10-08 12:55:00
9:15 AM,50.9,28.6,42,30.00,10.0,SW,11.5,24.2,N/A,,Scattered Clouds,220,2012-10-08 13:15:00
9:35 AM,50.9,28.2,42,29.99,10.0,SW,9.2,24.2,N/A,,Clear,220,2012-10-08 13:35:00
9:55 AM,52.3,28.9,41,29.99,10.0,SW,16.1,23.0,N/A,,Clear,220,2012-10-08 13:55:00
10:15 AM,53.2,29.7,40,29.99,10.0,SSW,16.1,19.6,N/A,,Clear,210,2012-10-08 14:15:00
10:35 AM,53.1,33.1,47,29.99,10.0,South,15.0,24.2,N/A,,Scattered Clouds,190,2012-10-08 14:35:00
10:55 AM,53.8,34.9,49,29.98,10.0,South,19.6,26.5,N/A,,Mostly Cloudy,180,2012-10-08 14:55:00
11:15 AM,54.5,34.9,48,29.98,10.0,SSW,15.0,25.3,N/A,,Scattered Clouds,200,2012-10-08 15:15:00
11:35 AM,55.4,36.0,48,29.98,10.0,South,17.3,23.0,N/A,,Scattered Clouds,170,2012-10-08 15:35:00
11:55 AM,55.4,35.6,47,29.98,10.0,SSW,16.1,26.5,N/A,,Mostly Cloudy,200,2012-10-08 15:55:00
12:15 PM,53.4,35.8,51,29.98,10.0,SSW,19.6,26.5,N/A,,Mostly Cloudy,210,2012-10-08 16:15:00
12:35 PM,55.6,36.3,48,29.98,10.0,South,11.5,26.5,N/A,,Mostly Cloudy,190,2012-10-08 16:35:00
12:55 PM,55.0,36.7,50,29.98,10.0,SSW,12.7,23.0,N/A,,Mostly Cloudy,200,2012-10-08 16:55:00
1:15 PM,56.8,36.3,46,29.97,10.0,SSW,20.7,27.6,N/A,,Scattered Clouds,200,2012-10-08 17:15:00
1:55 PM,57.4,34.3,42,29.95,10.0,SSW,20.7,31.1,N/A,,Scattered Clouds,200,2012-10-08 17:55:00
2:15 PM,58.1,33.6,40,29.95,10.0,SSW,12.7,28.8,N/A,,Scattered Clouds,210,2012-10-08 18:15:00
2:34 PM,57.7,32.0,38,29.94,10.0,South,18.4,32.2,N/A,,Scattered Clouds,190,2012-10-08 18:34:00
2:55 PM,57.4,33.1,40,29.93,10.0,SSW,17.3,31.1,N/A,,Scattered Clouds,200,2012-10-08 18:55:00
3:15 PM,57.0,34.0,42,29.93,10.0,South,12.7,29.9,N/A,,Mostly Cloudy,190,2012-10-08 19:15:00
3:35 PM,55.9,32.5,41,29.93,10.0,South,21.9,35.7,N/A,,Overcast,190,2012-10-08 19:35:00
3:55 PM,55.9,31.8,40,29.93,10.0,South,15.0,34.5,N/A,,Overcast,190,2012-10-08 19:55:00
4:15 PM,55.6,32.0,41,29.92,10.0,SSW,13.8,27.6,N/A,,Overcast,200,2012-10-08 20:15:00
4:35 PM,55.6,32.2,41,29.92,10.0,South,16.1,32.2,N/A,,Overcast,180,2012-10-08 20:35:00
4:55 PM,55.2,31.8,41,29.91,10.0,South,16.1,32.2,N/A,,Overcast,190,2012-10-08 20:55:00
5:15 PM,54.9,31.5,41,29.90,10.0,South,20.7,29.9,N/A,,Overcast,190,2012-10-08 21:15:00
5:35 PM,54.7,31.8,42,29.90,10.0,SSW,16.1,28.8,N/A,,Mostly Cloudy,200,2012-10-08 21:35:00
5:55 PM,54.7,30.2,39,29.90,10.0,SSW,13.8,32.2,N/A,,Mostly Cloudy,200,2012-10-08 21:55:00
6:15 PM,54.9,31.1,40,29.90,10.0,South,15.0,31.1,N/A,,Overcast,190,2012-10-08 22:15:00
6:35 PM,54.7,31.1,41,29.90,10.0,South,18.4,31.1,N/A,,Overcast,180,2012-10-08 22:35:00
6:55 PM,54.7,31.1,41,29.90,10.0,South,15.0,24.2,N/A,,Overcast,180,2012-10-08 22:55:00
7:14 PM,54.7,31.1,41,29.89,10.0,South,15.0,24.2,N/A,,Overcast,180,2012-10-08 23:14:00
7:35 PM,54.7,30.6,40,29.89,10.0,South,16.1,27.6,N/A,,Overcast,180,2012-10-08 23:35:00
7:55 PM,54.5,31.6,42,29.89,10.0,South,13.8,21.9,N/A,,Overcast,190,2012-10-08 23:55:00
8:15 PM,54.5,32.0,42,29.89,10.0,South,11.5,24.2,N/A,,Overcast,170,2012-10-09 00:15:00
8:35 PM,54.3,32.5,44,29.88,10.0,South,17.3,28.8,N/A,,Overcast,190,2012-10-09 00:35:00
8:55 PM,53.6,32.5,45,29.88,10.0,South,18.4,28.8,N/A,,Overcast,180,2012-10-09 00:55:00
9:15 PM,53.6,33.3,46,29.88,10.0,South,13.8,21.9,N/A,,Overcast,180,2012-10-09 01:15:00
9:35 PM,53.6,33.8,47,29.88,10.0,South,17.3,24.2,N/A,,Overcast,180,2012-10-09 01:35:00
10:15 PM,53.4,34.7,49,29.88,10.0,South,9.2,27.6,N/A,,Overcast,170,2012-10-09 02:15:00
10:35 PM,53.6,35.6,51,29.88,10.0,South,13.8,24.2,N/A,,Overcast,180,2012-10-09 02:35:00
10:55 PM,53.6,36.0,51,29.88,10.0,South,13.8,23.0,N/A,,Overcast,180,2012-10-09 02:55:00
11:15 PM,53.6,36.5,52,29.87,10.0,South,13.8,25.3,N/A,,Overcast,180,2012-10-09 03:15:00
11:55 PM,54.5,38.1,54,29.86,10.0,South,13.8,25.3,N/A,,Overcast,180,2012-10-09 03:55:00